Location: Aulagny
(45.1643°N, 4.3096°E)
Time: 16:44:44
(UTC+00:00)

ARGOS - Pass Details

Date: 21 October 2019
Orbit: 820 x 835 km, 98.5° (Epoch: 12 November)

Event Time Altitude Azimuth Distance (km) Brightness Sun altitude
Exits shadow 19:05:12 36° 32° (NNE) 1,303 3.9 -24.8°
Drops below altitude 10° 19:08:56 10° 359° (N) 2,457 5.7 -25.5°
Sets 19:11:24 0° 353° (N) 3,395 6.6 -25.9°
